DECAYED

STARLINK-1941, 46793 (Decayed)

Orbit data source: Space-Track

STARLINK-1941, 46793 was a payload satellite owned by SpaceX/Seattle (US) in LEO that was launched on Sat, 24 Oct 2020 UTC via an FALCON 9 launch vehicle from the Air Force Eastern Test Range (AFETR). Payload-class satellites include a variety of spacecraft equipped with specific instruments for various scientific and technological missions. These include communications satellites like Starlink; space stations such as the ISS; scientific satellites like the Hubble; Earth observation satellites from companies like Planet Labs, Umbra, and HawkEye 360; GPS; miniature CubeSats for education and research; and military/defense satellites.

Not visible in the next 10 days
Identifier
46793, 2020-074BG
Orbit
Decayed
Country
Flag of USUS
Related business
Manufacturer
SpaceX/Seattle
Mission
Decayed Commercial Communications
Bus & Motor
STARLINK, Unknown motor
Mass
260 kg wet, ~248 kg dry
Launch date (UTC)
2020-10-24 (6 years ago)
Launch vehicle
FALCON 9
Launch site
Air Force Eastern Test Range (AFETR)
Object type
Payload
Rocket body
Debris
Shape & HBR
Box + 1 Pan, 10.1 m
Radar Cross Section
13.562 m², Large (>1 m²)

Expand to show TLE details & history
Last TLE update: 2 years ago

TLE from 2 years ago
0 STARLINK-1941
1 46793U 20074BG  25078.93611640  .23551134  12481-4  44975-3 0  9990
2 46793  53.0188  63.6869 0004773 172.6783 287.0840 16.47124266243589
Epoch: 2025-03-19T22:28Z
TLE epoch observation values (Epoch: 2025-03-19T22:28:00.456Z)
Latitude
52.10044°
Longitude
14.86437°
Altitude
152.234 km
Speed
7.822 km/s
True Right ascension
11h 18m 20s
True Declination
51° 55' 05"
Sunlit
Object was in full shadow at epoch
Visualization orbit readout
Latitude
Unknown
Longitude
Unknown
Altitude
Unknown
Speed
Unknown
Apparent Right ascension
Unknown
Apparent Declination
Unknown
Sunlit
N/A
Visualization observer readout
Local Sidereal Time
05:20:12
Azimuth
Unknown
Elevation
Unknown
Doppler factor
Unknown
Orbital elements
Apogee altitude
150.327 km
Perigee altitude
144.098 km
Semi-major axis
6,525.349 km
Eccentricity
0.00048
Inclination
53.0188°
RAAN
63.6869°
Arg. of periapsis
172.6783°
True anomaly
287.03171°
Mean anomaly
287.084°
Eccentric anomaly
287.05786°
Mean motion
4.11754 °/min
Orbital period
87.43 mins
BSTAR
0.00044975
Loading maneuver chart data...
Computing Atmospheric mass density...

Documentation

Showing up to 5 results
|